Погода в Томмоте

Поиск расширенной информации на нашем сайте:

Полезная информация:

Новости сайта



02.01.2020
Опубликован Долгосрочный прогноз погоды по городам России и ближнего зарубежья на январь 2020 года.
Карты: Прогноз на январь и февраль 2020 года, Сравнение прогнозируемой аномалии приземной температуры воздуха на январь 2020 года по разным моделям.




Погода в Томмоте - сегодня

Время (UTC), дата Ветер
(°,м/с) 
Видим.   Явления Облачность Т
(°С)
Тd
(°С)
f(%) Тe
(°С)
Pmin
(гПа)
dP
(гПа)
Po
(мм)
O2
(г/м3)
Тmin Tmax R s Состояние
почвы
09 23.11.20 тихо ()   10 км  слаб. снег  10/10 2000 м 
[Ac As]
-13.1 -14.4 90 -13  1008.1  1.2  729  310           
12 23.11.20 360 (С) 10 км  слаб. снег  10/0 средняя 
[Ac As]
-14 -15.3 90 -14  1011.4  731  312         
15 23.11.20 340 (С) 20000 м  слаб. снег  10/6 2000 м средняя, верхняя 
[Ac As|Cs]
-11.1 -13.1 85 -11  1012.3  1.2  732  308           
18 23.11.20 310 (СЗ) 20000 м  слаб. снег  10/10 2000 м 
[Ac As]
-11.9 -13.9 85 -14  1014.7  2.2  733  310           
21 23.11.20 320 (СЗ) 20000 м  слаб. снег  10/8 2000 м средняя, верхняя 
[Ac As|Cs]
-12.1 -14.1 85 -12  1016  1.3  734  311           
00 24.11.20 290 (З) 20000 м  слаб. снег  10/0 средняя, верхняя 
[Ac As|Cs]
-12.6 -14.6 85 -15  1017.9  1.8  736  312  -14    35  равномерный
сухой снег
100% 
15 24.11.20 270 (З) 20000 м  слаб. снег  10/0 2000 м верхняя 
[Cs]
-12.8 -15.5 80 -16  1023.7  0.3  740  314           
18 24.11.20 290 (З) 20000 м  слаб. снег  10/0 верхняя 
[Cs]
-12.6 -15.3 80 -15  1023.5  740  314           
21 24.11.20 290 (З) 20000 м  слаб. снег  10/0 верхняя 
[Cs]
-13.4 -16.1 80 -16  1023.7  740  315           
00 25.11.20 260 (З) 20000 м  слаб. снег  10/0 верхняя 
[Cs]
-14.6 -17.3 80 -15  1024.2  0.3  740  316  -14.6    35  равномерный
сухой снег
100% 
03 25.11.20 290 (З) 20000 м  слаб. снег  10/0 верхняя 
[Cs]
-12.8 -16.3 75 -15  1023.6  -0.4  740  314           
06 25.11.20 300 (СЗ) 20000 м  слаб. снег  10/6 2000 м средняя, верхняя 
[Ac As|Cs]
-13.3 -16.8 75 -15  1023.9  0.2  740  315           
09 25.11.20 310 (СЗ) 20000 м  слаб. снег  10/10 2000 м 
[Ac As]
-13.6 -16.3 80 -16  1024.6  0.7  740  315           
12 25.11.20 290 (З) 20000 м  слаб. снег  10/0 средняя, верхняя 
[Ac As|Cs]
-14 -17.5 75 -18  1024.9  0.2  741  316    -12.5     
15 25.11.20 290 (З) 20000 м  слаб. снег  10/8 2000 м средняя, верхняя 
[Ac As|Cs]
-13.6 -17.1 75 -16  1025.6  0.8  741  316           
18 25.11.20 330 (СЗ) 20000 м  слаб. снег  10/0 верхняя 
[Cs]
-13.4 -15.4 85 -13  1026.4  0.8  742  316           
21 25.11.20 300 (СЗ) 20000 м  слаб. снег  10/0 верхняя 
[Cs]
-13.3 -16 80 -15  1027.1  0.6  742  316           
00 26.11.20 300 (СЗ) 20000 м  слаб. снег  10/0 верхняя 
[Cs]
-13.4 -16.1 80 -17  1028.7  1.6  743  316  -14    0.7  36  равномерный
сухой снег
100% 
03 26.11.20 300 (СЗ) 20000 м  слаб. снег  10/4 2000 м средняя, верхняя 
[Ac As|Cs]
-13 -16.5 75 -15  1029.8  1.1  744  316           
06 26.11.20 280 (З) 2{10}  20000 м  слаб. снег  10/0 средняя, верхняя 
[Ac As|Cs]
-13.4 -16.9 75 -16  1031.5  1.6  745  317           
09 26.11.20 280 (З) 20000 м  слаб. снег  10/6 2000 м средняя, верхняя 
[Ac As|Cs]
-12.7 -16.2 75 -15  1032.2  0.7  746  317           
12 26.11.20 300 (СЗ) 20000 м  позёмок{снег}  10/0 верхняя 
[Cs]
-13.1 -16.6 75 -15  1032.4  0.2  746  317    -12.7  0.3     
15 26.11.20 260 (З) 20000 м  слаб. снег  10/5 2000 м средняя, верхняя 
[Ac As|Cs]
-13 -15.7 80 -15  1032.4  746  317           
18 26.11.20 300 (СЗ) 20000 м  слаб. снег  10/10 2000 м 
[Ac As]
-12.2 -14.9 80 -14  1032  -0.3  746  316           
21 26.11.20 300 (СЗ) 20000 м  слаб. снег  10/10 2000 м 
[Ac As]
-12 -14.7 80 -14  1031.6  -0.4  746  316           
Время (UTC), дата Ветер
(°,м/с) 
Видим.   Явления Облачность Т
(°С)
Тd
(°С)
f(%) Тe
(°С)
Pmin
(гПа)
dP
(гПа)
Po
(мм)
O2
(г/м3)
Тmin Tmax R s Состояние
почвы

Для получения пояснительной информации подведите курсор к названию столбца.

ПОГОДА в Томмоте - архив

Всё, что Вы хотите узнать о погоде в Томмоте - удобно и подробно!

Выберите нужную дату (начиная с 1 января 2019* года) и нажмите кнопку "Найти".
Будут отображены архивные сводки погоды по пункту Томмот, начиная с указанной даты.


Отображать данные в формате CSV (для использования в таблицах Excel)


Внимание! Наш архив погоды предназначен исключительно для личного некоммерческого использования в познавательных целях. Если Вам необходимы официальные справки о состоянии погоды (для производственных, юридических, коммерческих и т.п. целей), обращайтесь в органы Росгидромета.

*Примечание: данная дата относится к архиву по метеостанциям СССР (Россия, СНГ, Балтия).
Архив по метеостанциям Зарубежной Европы и Азии (кроме Китая) хранится 10 дней, по другим регионам земного шара (Китай, Африка, Америка, Австралия, Океания) - 1 день.

Томмот - район местоположения метеостанции


Название, широта, долгота, высота метеостанции:
Томмот 58.9°ш. 126.3°д. 283 м над ур. моря [Российская Федерация]

Дополнительная информация

В oтличие oт бoльшинства пoгoдных сайтoв мы публикуем пoдрoбную метеoинфoрмацию в детальнoм прoфессиoнальнoм фoрмате.

Характеристики температуры и влажнoсти вoздуха измеряются на высoте 2 м в тени вдали oт зданий и деревьев.
Скoрoсть ветра измеряется на высoте 10 м (на урoвне рoста челoвека скoрoсть ветра ниже в 1.5-2 раза). Если метеoстанция нахoдится в гoрoде или в лесу, тo скoрoсть ветра занижена на 2-4 м/с пo сравнению с oткрытым местoм. Скoрoсть ветра над акватoриями крупных рек и oзёр, а также на вершинах хoлмoв на 2-5 м/с выше, чем в oбычных услoвиях.
Атмoсфернoе давление в разных тoчках местнoсти мoжет значительнo oтличаться oт давления на метеoстанции, в зависимoсти oт услoвий рельефа (при пoдъёме на 10 м давление пoнижается примернo на 1 мм рт.ст.).